owner,sensor,date,latitude,longitude,vertical_datum,direction_of_sea_water_velocity,sea_water_speed,upward_sea_water_velocity,qcFlag 
TABS,ioos:station:wmo:42050:1,2006-07-01T00:00:00Z,28.8425,-94.2433,2.0,296.2611598,16.00152805,-99999.0,'11111222,11111222,99999999' 
TABS,ioos:station:wmo:42050:1,2006-07-01T00:30:00Z,28.8425,-94.2433,2.0,288.0174765,14.74293051,-99999.0,'11111222,11111222,99999999' 
TABS,ioos:station:wmo:42050:1,2006-07-01T01:00:00Z,28.8425,-94.2433,2.0,298.1914096,15.91826938,-99999.0,'11111222,11111222,99999999' 
TABS,ioos:station:wmo:42050:1,2006-07-01T01:30:00Z,28.8425,-94.2433,2.0,298.7848715,10.5084585,-99999.0,'11111222,11111222,99999999' 
TABS,ioos:station:wmo:42050:1,2006-07-01T02:00:00Z,28.8425,-94.2433,2.0,278.7883955,11.45447074,-99999.0,'11111222,11111222,99999999' 
TABS,ioos:station:wmo:42050:1,2006-07-01T02:30:00Z,28.8425,-94.2433,2.0,303.9272759,12.07592647,-99999.0,'11111222,11111222,99999999' 
TABS,ioos:station:wmo:42050:1,2006-07-01T03:00:00Z,28.8425,-94.2433,2.0,299.298836,13.69136954,-99999.0,'11111222,11111222,99999999' 
TABS,ioos:station:wmo:42050:1,2006-07-01T03:30:00Z,28.8425,-94.2433,2.0,289.2469433,8.706623915,-99999.0,'11133222,11111222,99999999' 
TABS,ioos:station:wmo:42050:1,2006-07-01T04:00:00Z,28.8425,-94.2433,2.0,296.0788344,10.53225997,-99999.0,'11111222,11111222,99999999' 
TABS,ioos:station:wmo:42050:1,2006-07-01T04:30:00Z,28.8425,-94.2433,2.0,289.1475901,8.140331689,-99999.0,'11133222,11111222,99999999' 
TABS,ioos:station:wmo:42050:1,2006-07-01T05:00:00Z,28.8425,-94.2433,2.0,301.4583758,9.54253635,-99999.0,'11133222,11111222,99999999' 
TABS,ioos:station:wmo:42050:1,2006-07-01T05:30:00Z,28.8425,-94.2433,2.0,311.5709698,11.34817166,-99999.0,'11111222,11111222,99999999' 
TABS,ioos:station:wmo:42050:1,2006-07-01T06:00:00Z,28.8425,-94.2433,2.0,305.1069106,9.424462849,-99999.0,'11133222,11111222,99999999' 
TABS,ioos:station:wmo:42050:1,2006-07-01T06:30:00Z,28.8425,-94.2433,2.0,309.0783477,8.772513893,-99999.0,'11133222,11111222,99999999' 
TABS,ioos:station:wmo:42050:1,2006-07-01T07:00:00Z,28.8425,-94.2433,2.0,308.717055,9.432899872,-99999.0,'11133222,11111222,99999999' 
TABS,ioos:station:wmo:42050:1,2006-07-01T07:30:00Z,28.8425,-94.2433,2.0,319.3847154,8.69457302,-99999.0,'11133222,11111222,99999999' 
TABS,ioos:station:wmo:42050:1,2006-07-01T08:00:00Z,28.8425,-94.2433,2.0,323.8124578,8.400595217,-99999.0,'11133222,11111222,99999999' 
TABS,ioos:station:wmo:42050:1,2006-07-01T08:30:00Z,28.8425,-94.2433,2.0,314.7512058,6.505443874,-99999.0,'11133222,11111222,99999999' 
TABS,ioos:station:wmo:42050:1,2006-07-01T09:00:00Z,28.8425,-94.2433,2.0,323.5785426,8.438258114,-99999.0,'11133222,11111222,99999999' 
TABS,ioos:station:wmo:42050:1,2006-07-01T09:30:00Z,28.8425,-94.2433,2.0,334.4880647,7.058222156,-99999.0,'11133222,11111222,99999999' 
TABS,ioos:station:wmo:42050:1,2006-07-01T10:00:00Z,28.8425,-94.2433,2.0,335.6156374,7.993021957,-99999.0,'11133222,11111222,99999999' 
TABS,ioos:station:wmo:42050:1,2006-07-01T10:30:00Z,28.8425,-94.2433,2.0,322.7881693,8.036143354,-99999.0,'11133222,11111222,99999999' 
TABS,ioos:station:wmo:42050:1,2006-07-01T11:00:00Z,28.8425,-94.2433,2.0,308.4674157,7.893066578,-99999.0,'11133222,11111222,99999999' 
TABS,ioos:station:wmo:42050:1,2006-07-01T11:30:00Z,28.8425,-94.2433,2.0,326.222165,5.413880309,-99999.0,'11133222,11111222,99999999' 
TABS,ioos:station:wmo:42050:1,2006-07-01T12:00:00Z,28.8425,-94.2433,2.0,319.1954176,5.799672405,-99999.0,'11133222,11111222,99999999' 
TABS,ioos:station:wmo:42050:1,2006-07-01T12:30:00Z,28.8425,-94.2433,2.0,308.5348684,5.714411606,-99999.0,'11133222,11111222,99999999' 
TABS,ioos:station:wmo:42050:1,2006-07-01T13:00:00Z,28.8425,-94.2433,2.0,296.896595,3.868462227,-99999.0,'11133222,11111222,99999999' 
TABS,ioos:station:wmo:42050:1,2006-07-01T13:30:00Z,28.8425,-94.2433,2.0,281.58503,5.726656965,-99999.0,'11133222,11111222,99999999' 
TABS,ioos:station:wmo:42050:1,2006-07-01T14:00:00Z,28.8425,-94.2433,2.0,260.7999406,5.379191389,-99999.0,'11133222,11111222,99999999' 
TABS,ioos:station:wmo:42050:1,2006-07-01T14:30:00Z,28.8425,-94.2433,2.0,269.5801455,6.830183014,-99999.0,'11133222,11111222,99999999' 
TABS,ioos:station:wmo:42050:1,2006-07-01T15:00:00Z,28.8425,-94.2433,2.0,255.0625003,6.47892738,-99999.0,'11133222,11111222,99999999' 
TABS,ioos:station:wmo:42050:1,2006-07-01T15:30:00Z,28.8425,-94.2433,2.0,242.3031184,8.606067627,-99999.0,'11133222,11111222,99999999' 
TABS,ioos:station:wmo:42050:1,2006-07-01T16:00:00Z,28.8425,-94.2433,2.0,244.4197355,10.14430382,-99999.0,'11111222,11111222,99999999' 
TABS,ioos:station:wmo:42050:1,2006-07-01T16:30:00Z,28.8425,-94.2433,2.0,245.1461021,11.23007124,-99999.0,'11111222,11111222,99999999' 
TABS,ioos:station:wmo:42050:1,2006-07-01T17:00:00Z,28.8425,-94.2433,2.0,248.6057357,10.96558708,-99999.0,'11111222,11111222,99999999' 
TABS,ioos:station:wmo:42050:1,2006-07-01T17:30:00Z,28.8425,-94.2433,2.0,247.0951263,11.76783752,-99999.0,'11111222,11111222,99999999' 
TABS,ioos:station:wmo:42050:1,2006-07-01T18:00:00Z,28.8425,-94.2433,2.0,243.8343695,12.17792265,-99999.0,'11111222,11111222,99999999' 
TABS,ioos:station:wmo:42050:1,2006-07-01T18:30:00Z,28.8425,-94.2433,2.0,244.8832496,10.43682902,-99999.0,'11111222,11111222,99999999' 
TABS,ioos:station:wmo:42050:1,2006-07-01T19:00:00Z,28.8425,-94.2433,2.0,246.7114038,9.232166593,-99999.0,'11133222,11111222,99999999' 
TABS,ioos:station:wmo:42050:1,2006-07-01T19:30:00Z,28.8425,-94.2433,2.0,239.1157733,8.610952328,-99999.0,'11133222,11111222,99999999' 
TABS,ioos:station:wmo:42050:1,2006-07-01T20:00:00Z,28.8425,-94.2433,2.0,264.2413324,4.784140466,-99999.0,'11133222,11111222,99999999' 
TABS,ioos:station:wmo:42050:1,2006-07-01T20:30:00Z,28.8425,-94.2433,2.0,263.2752417,6.917586284,-99999.0,'11133222,11111222,99999999' 
TABS,ioos:station:wmo:42050:1,2006-07-01T21:00:00Z,28.8425,-94.2433,2.0,271.4648027,6.652172577,-99999.0,'11133222,11111222,99999999' 
TABS,ioos:station:wmo:42050:1,2006-07-01T21:30:00Z,28.8425,-94.2433,2.0,274.4242236,7.00085709,-99999.0,'11133222,11111222,99999999' 
TABS,ioos:station:wmo:42050:1,2006-07-01T22:00:00Z,28.8425,-94.2433,2.0,296.56541,6.797646652,-99999.0,'11133222,11111222,99999999' 
TABS,ioos:station:wmo:42050:1,2006-07-01T22:30:00Z,28.8425,-94.2433,2.0,303.4226749,7.715963971,-99999.0,'11133222,11111222,99999999' 
TABS,ioos:station:wmo:42050:1,2006-07-01T23:00:00Z,28.8425,-94.2433,2.0,290.4464782,7.92955232,-99999.0,'11133222,11111222,99999999' 
TABS,ioos:station:wmo:42050:1,2006-07-01T23:30:00Z,28.8425,-94.2433,2.0,299.6469555,9.400606363,-99999.0,'11133222,11111222,99999999' 
TABS,ioos:station:wmo:42050:1,2006-07-02T00:00:00Z,28.8425,-94.2433,2.0,303.2987115,8.925334728,-99999.0,'11133222,11111222,99999999' 
TABS,ioos:station:wmo:42050:1,2006-07-02T00:30:00Z,28.8425,-94.2433,2.0,302.8206601,5.664141594,-99999.0,'11133222,11111222,99999999' 
TABS,ioos:station:wmo:42050:1,2006-07-02T01:00:00Z,28.8425,-94.2433,2.0,326.7868382,6.334895421,-99999.0,'11133222,11111222,99999999' 
TABS,ioos:station:wmo:42050:1,2006-07-02T01:30:00Z,28.8425,-94.2433,2.0,327.4528307,4.033472449,-99999.0,'11133222,11111222,99999999' 
TABS,ioos:station:wmo:42050:1,2006-07-02T02:00:00Z,28.8425,-94.2433,2.0,310.0700845,2.221463482,-99999.0,'11133222,11111222,99999999' 
TABS,ioos:station:wmo:42050:1,2006-07-02T02:30:00Z,28.8425,-94.2433,2.0,240.1622058,3.838880045,-99999.0,'11133222,11111222,99999999' 
TABS,ioos:station:wmo:42050:1,2006-07-02T03:00:00Z,28.8425,-94.2433,2.0,287.9934667,3.690487773,-99999.0,'11133222,11111222,99999999' 
TABS,ioos:station:wmo:42050:1,2006-07-02T03:30:00Z,28.8425,-94.2433,2.0,282.6089982,2.336343297,-99999.0,'11133222,11111222,99999999' 
TABS,ioos:station:wmo:42050:1,2006-07-02T04:00:00Z,28.8425,-94.2433,2.0,257.2463087,2.491465432,-99999.0,'11133222,11111222,99999999' 
TABS,ioos:station:wmo:42050:1,2006-07-02T04:30:00Z,28.8425,-94.2433,2.0,245.9956276,2.802356152,-99999.0,'11133222,11111222,99999999' 
TABS,ioos:station:wmo:42050:1,2006-07-02T05:00:00Z,28.8425,-94.2433,2.0,236.9871682,2.110781846,-99999.0,'11133222,11111222,99999999' 
TABS,ioos:station:wmo:42050:1,2006-07-02T05:30:00Z,28.8425,-94.2433,2.0,292.9600845,2.204654168,-99999.0,'11133222,11111222,99999999' 
TABS,ioos:station:wmo:42050:1,2006-07-02T06:00:00Z,28.8425,-94.2433,2.0,274.4391269,2.196588264,-99999.0,'11133222,11111222,99999999' 
TABS,ioos:station:wmo:42050:1,2006-07-02T06:30:00Z,28.8425,-94.2433,2.0,330.2790453,3.005361875,-99999.0,'11133222,11111222,99999999' 
TABS,ioos:station:wmo:42050:1,2006-07-02T07:00:00Z,28.8425,-94.2433,2.0,323.9488526,3.500357125,-99999.0,'11133222,11111222,99999999' 
TABS,ioos:station:wmo:42050:1,2006-07-02T07:30:00Z,28.8425,-94.2433,2.0,349.3008921,4.416786162,-99999.0,'11133222,11111222,99999999' 
TABS,ioos:station:wmo:42050:1,2006-07-02T08:00:00Z,28.8425,-94.2433,2.0,20.94892053,3.244456811,-99999.0,'11133222,11111222,99999999' 
TABS,ioos:station:wmo:42050:1,2006-07-02T08:30:00Z,28.8425,-94.2433,2.0,10.76522892,5.567988865,-99999.0,'11133222,11111222,99999999' 
TABS,ioos:station:wmo:42050:1,2006-07-02T09:00:00Z,28.8425,-94.2433,2.0,28.76896859,8.373559578,-99999.0,'11133222,11111222,99999999' 
TABS,ioos:station:wmo:42050:1,2006-07-02T09:30:00Z,28.8425,-94.2433,2.0,21.10349906,6.249111937,-99999.0,'11133222,11111222,99999999' 
TABS,ioos:station:wmo:42050:1,2006-07-02T10:00:00Z,28.8425,-94.2433,2.0,22.31959866,7.188560357,-99999.0,'11133222,11111222,99999999' 
TABS,ioos:station:wmo:42050:1,2006-07-02T10:30:00Z,28.8425,-94.2433,2.0,13.69127079,6.844479527,-99999.0,'11133222,11111222,99999999' 
TABS,ioos:station:wmo:42050:1,2006-07-02T11:00:00Z,28.8425,-94.2433,2.0,356.7329422,5.088270826,-99999.0,'11133222,11111222,99999999' 
TABS,ioos:station:wmo:42050:1,2006-07-02T11:30:00Z,28.8425,-94.2433,2.0,16.76978897,4.678984933,-99999.0,'11133222,11111222,99999999' 
TABS,ioos:station:wmo:42050:1,2006-07-02T12:00:00Z,28.8425,-94.2433,2.0,18.08164219,5.638448368,-99999.0,'11133222,11111222,99999999' 
TABS,ioos:station:wmo:42050:1,2006-07-02T12:30:00Z,28.8425,-94.2433,2.0,11.71167737,6.995634353,-99999.0,'11133222,11111222,99999999' 
TABS,ioos:station:wmo:42050:1,2006-07-02T13:00:00Z,28.8425,-94.2433,2.0,8.877881386,5.961417617,-99999.0,'11133222,11111222,99999999' 
TABS,ioos:station:wmo:42050:1,2006-07-02T13:30:00Z,28.8425,-94.2433,2.0,25.95519522,5.460787489,-99999.0,'11133222,11111222,99999999' 
TABS,ioos:station:wmo:42050:1,2006-07-02T14:00:00Z,28.8425,-94.2433,2.0,7.050744997,6.680516447,-99999.0,'11133222,11111222,99999999' 
TABS,ioos:station:wmo:42050:1,2006-07-02T14:30:00Z,28.8425,-94.2433,2.0,339.6177146,5.024599487,-99999.0,'11133222,11111222,99999999' 
TABS,ioos:station:wmo:42050:1,2006-07-02T15:00:00Z,28.8425,-94.2433,2.0,317.9758767,5.721136251,-99999.0,'11133222,11111222,99999999' 
TABS,ioos:station:wmo:42050:1,2006-07-02T15:30:00Z,28.8425,-94.2433,2.0,284.6315805,4.671487986,-99999.0,'11133222,11111222,99999999' 
TABS,ioos:station:wmo:42050:1,2006-07-02T16:00:00Z,28.8425,-94.2433,2.0,289.9316576,4.722891064,-99999.0,'11133222,11111222,99999999' 
TABS,ioos:station:wmo:42050:1,2006-07-02T16:30:00Z,28.8425,-94.2433,2.0,229.213853,2.020717694,-99999.0,'11133222,11111222,99999999' 
TABS,ioos:station:wmo:42050:1,2006-07-02T17:00:00Z,28.8425,-94.2433,2.0,239.4925643,2.797230773,-99999.0,'11133222,11111222,99999999' 
TABS,ioos:station:wmo:42050:1,2006-07-02T17:30:00Z,28.8425,-94.2433,2.0,225.8446916,7.19205812,-99999.0,'11133222,11111222,99999999' 
TABS,ioos:station:wmo:42050:1,2006-07-02T18:00:00Z,28.8425,-94.2433,2.0,218.1686943,2.734702909,-99999.0,'11133222,11111222,99999999' 
TABS,ioos:station:wmo:42050:1,2006-07-02T18:30:00Z,28.8425,-94.2433,2.0,248.4283223,4.623851209,-99999.0,'11133222,11111222,99999999' 
TABS,ioos:station:wmo:42050:1,2006-07-02T19:00:00Z,28.8425,-94.2433,2.0,277.0082518,6.065311204,-99999.0,'11133222,11111222,99999999' 
TABS,ioos:station:wmo:42050:1,2006-07-02T19:30:00Z,28.8425,-94.2433,2.0,274.4458661,6.57979483,-99999.0,'11133222,11111222,99999999' 
TABS,ioos:station:wmo:42050:1,2006-07-02T20:00:00Z,28.8425,-94.2433,2.0,293.9493598,8.622319873,-99999.0,'11133222,11111222,99999999' 
TABS,ioos:station:wmo:42050:1,2006-07-02T20:30:00Z,28.8425,-94.2433,2.0,297.9346394,8.04767047,-99999.0,'11133222,11111222,99999999' 
TABS,ioos:station:wmo:42050:1,2006-07-02T21:00:00Z,28.8425,-94.2433,2.0,307.241932,10.79022706,-99999.0,'11111222,11111222,99999999' 
TABS,ioos:station:wmo:42050:1,2006-07-02T21:30:00Z,28.8425,-94.2433,2.0,330.0217786,12.16790861,-99999.0,'11111222,11111222,99999999' 
TABS,ioos:station:wmo:42050:1,2006-07-02T22:00:00Z,28.8425,-94.2433,2.0,338.8218617,9.05132587,-99999.0,'11133222,11111222,99999999' 
TABS,ioos:station:wmo:42050:1,2006-07-02T22:30:00Z,28.8425,-94.2433,2.0,331.9073544,9.895882982,-99999.0,'11133222,11111222,99999999' 
TABS,ioos:station:wmo:42050:1,2006-07-02T23:00:00Z,28.8425,-94.2433,2.0,347.5315113,9.309575715,-99999.0,'11133222,11111222,99999999' 
TABS,ioos:station:wmo:42050:1,2006-07-02T23:30:00Z,28.8425,-94.2433,2.0,339.9142245,8.560677543,-99999.0,'11133222,11111222,99999999' 
TABS,ioos:station:wmo:42050:1,2006-07-03T00:00:00Z,28.8425,-94.2433,2.0,340.4429409,7.58775988,-99999.0,'11133222,11111222,99999999' 
TABS,ioos:station:wmo:42050:1,2006-07-03T00:30:00Z,28.8425,-94.2433,2.0,332.1859816,7.179484661,-99999.0,'11133222,11111222,99999999' 
TABS,ioos:station:wmo:42050:1,2006-07-03T01:00:00Z,28.8425,-94.2433,2.0,354.0240857,7.299671225,-99999.0,'11133222,11111222,99999999' 
TABS,ioos:station:wmo:42050:1,2006-07-03T01:30:00Z,28.8425,-94.2433,2.0,353.8609217,5.984321181,-99999.0,'11133222,11111222,99999999' 
TABS,ioos:station:wmo:42050:1,2006-07-03T02:00:00Z,28.8425,-94.2433,2.0,334.4768456,8.610284548,-99999.0,'11133222,11111222,99999999' 
TABS,ioos:station:wmo:42050:1,2006-07-03T02:30:00Z,28.8425,-94.2433,2.0,352.3728101,6.931327434,-99999.0,'11133222,11111222,99999999' 
TABS,ioos:station:wmo:42050:1,2006-07-03T03:00:00Z,28.8425,-94.2433,2.0,352.9423803,5.290085065,-99999.0,'11133222,11111222,99999999' 
TABS,ioos:station:wmo:42050:1,2006-07-03T03:30:00Z,28.8425,-94.2433,2.0,339.818467,7.884059868,-99999.0,'11133222,11111222,99999999' 
TABS,ioos:station:wmo:42050:1,2006-07-03T04:00:00Z,28.8425,-94.2433,2.0,313.0670195,6.707190172,-99999.0,'11133222,11111222,99999999' 
TABS,ioos:station:wmo:42050:1,2006-07-03T04:30:00Z,28.8425,-94.2433,2.0,331.4651406,3.642471688,-99999.0,'11133222,11111222,99999999' 
TABS,ioos:station:wmo:42050:1,2006-07-03T05:00:00Z,28.8425,-94.2433,2.0,306.7956287,4.608003906,-99999.0,'11133222,11111222,99999999' 
TABS,ioos:station:wmo:42050:1,2006-07-03T05:30:00Z,28.8425,-94.2433,2.0,302.0992731,1.298499134,-99999.0,'11133222,11111222,99999999' 
TABS,ioos:station:wmo:42050:1,2006-07-03T06:00:00Z,28.8425,-94.2433,2.0,159.4181682,2.617040313,-99999.0,'11133222,11111222,99999999' 
TABS,ioos:station:wmo:42050:1,2006-07-03T06:30:00Z,28.8425,-94.2433,2.0,185.1608755,1.556309738,-99999.0,'11133222,11111222,99999999' 
TABS,ioos:station:wmo:42050:1,2006-07-03T07:00:00Z,28.8425,-94.2433,2.0,300.4199294,1.264001582,-99999.0,'11133222,11111222,99999999' 
TABS,ioos:station:wmo:42050:1,2006-07-03T07:30:00Z,28.8425,-94.2433,2.0,302.4860168,3.034880558,-99999.0,'11133222,11111222,99999999' 
TABS,ioos:station:wmo:42050:1,2006-07-03T08:00:00Z,28.8425,-94.2433,2.0,264.2889993,0.200997512,-99999.0,'11133222,11111222,99999999' 
TABS,ioos:station:wmo:42050:1,2006-07-03T08:30:00Z,28.8425,-94.2433,2.0,337.79303,2.883920942,-99999.0,'11133222,11111222,99999999' 
TABS,ioos:station:wmo:42050:1,2006-07-03T09:00:00Z,28.8425,-94.2433,2.0,0.000210459,1.73,-99999.0,'11133222,11111222,99999999' 
TABS,ioos:station:wmo:42050:1,2006-07-03T09:30:00Z,28.8425,-94.2433,2.0,137.9355614,2.209072203,-99999.0,'11133222,11111222,99999999' 
TABS,ioos:station:wmo:42050:1,2006-07-03T10:00:00Z,28.8425,-94.2433,2.0,39.22199967,2.388011725,-99999.0,'11133222,11111222,99999999' 
TABS,ioos:station:wmo:42050:1,2006-07-03T10:30:00Z,28.8425,-94.2433,2.0,147.6524217,1.77552809,-99999.0,'11133222,11111222,99999999' 
TABS,ioos:station:wmo:42050:1,2006-07-03T11:00:00Z,28.8425,-94.2433,2.0,49.31072097,4.233402887,-99999.0,'11133222,11111222,99999999' 
TABS,ioos:station:wmo:42050:1,2006-07-03T11:30:00Z,28.8425,-94.2433,2.0,12.5148138,4.384164687,-99999.0,'11133222,11111222,99999999' 
TABS,ioos:station:wmo:42050:1,2006-07-03T12:00:00Z,28.8425,-94.2433,2.0,37.31103162,6.236184731,-99999.0,'11133222,11111222,99999999' 
TABS,ioos:station:wmo:42050:1,2006-07-03T12:30:00Z,28.8425,-94.2433,2.0,44.78671461,7.594379501,-99999.0,'11133222,11111222,99999999' 
TABS,ioos:station:wmo:42050:1,2006-07-03T13:00:00Z,28.8425,-94.2433,2.0,44.93734989,6.455888785,-99999.0,'11133222,11111222,99999999' 
TABS,ioos:station:wmo:42050:1,2006-07-03T13:30:00Z,28.8425,-94.2433,2.0,50.58811996,5.591502481,-99999.0,'11133222,11111222,99999999' 
TABS,ioos:station:wmo:42050:1,2006-07-03T14:00:00Z,28.8425,-94.2433,2.0,49.3988003,2.489277003,-99999.0,'11133222,11111222,99999999' 
TABS,ioos:station:wmo:42050:1,2006-07-03T14:30:00Z,28.8425,-94.2433,2.0,95.74113203,5.598080028,-99999.0,'11133222,11111222,99999999' 
TABS,ioos:station:wmo:42050:1,2006-07-03T15:00:00Z,28.8425,-94.2433,2.0,123.2440015,5.344698308,-99999.0,'11133222,11111222,99999999' 
TABS,ioos:station:wmo:42050:1,2006-07-03T15:30:00Z,28.8425,-94.2433,2.0,138.6496108,6.887045811,-99999.0,'11133222,11111222,99999999' 
TABS,ioos:station:wmo:42050:1,2006-07-03T16:00:00Z,28.8425,-94.2433,2.0,141.8540266,11.31680609,-99999.0,'11111222,11111222,99999999' 
TABS,ioos:station:wmo:42050:1,2006-07-03T16:30:00Z,28.8425,-94.2433,2.0,151.2678909,12.41905794,-99999.0,'11111222,11111222,99999999' 
TABS,ioos:station:wmo:42050:1,2006-07-03T17:00:00Z,28.8425,-94.2433,2.0,149.2885459,22.57629288,-99999.0,'11111222,11111222,99999999' 
TABS,ioos:station:wmo:42050:1,2006-07-03T17:30:00Z,28.8425,-94.2433,2.0,150.0992921,22.36726626,-99999.0,'11111222,11111222,99999999' 
TABS,ioos:station:wmo:42050:1,2006-07-03T18:00:00Z,28.8425,-94.2433,2.0,162.7241653,37.51229132,-99999.0,'11111222,11111222,99999999' 
TABS,ioos:station:wmo:42050:1,2006-07-03T18:30:00Z,28.8425,-94.2433,2.0,169.5339386,33.41593183,-99999.0,'11111222,11111222,99999999' 
TABS,ioos:station:wmo:42050:1,2006-07-03T19:00:00Z,28.8425,-94.2433,2.0,177.5022088,37.17531439,-99999.0,'11111222,11111222,99999999' 
TABS,ioos:station:wmo:42050:1,2006-07-03T19:30:00Z,28.8425,-94.2433,2.0,184.6324362,38.50579826,-99999.0,'11111222,11111222,99999999' 
TABS,ioos:station:wmo:42050:1,2006-07-03T20:00:00Z,28.8425,-94.2433,2.0,191.5012984,36.36013476,-99999.0,'11111222,11111222,99999999' 
TABS,ioos:station:wmo:42050:1,2006-07-03T20:30:00Z,28.8425,-94.2433,2.0,203.0946588,32.65727637,-99999.0,'11111222,11111222,99999999' 
TABS,ioos:station:wmo:42050:1,2006-07-03T21:00:00Z,28.8425,-94.2433,2.0,212.0012225,31.34307739,-99999.0,'11111222,11111222,99999999' 
TABS,ioos:station:wmo:42050:1,2006-07-03T21:30:00Z,28.8425,-94.2433,2.0,221.2685512,34.4454714,-99999.0,'11111222,11111222,99999999' 
TABS,ioos:station:wmo:42050:1,2006-07-03T22:00:00Z,28.8425,-94.2433,2.0,226.6748342,29.9941461,-99999.0,'11111222,11111222,99999999' 
TABS,ioos:station:wmo:42050:1,2006-07-03T22:30:00Z,28.8425,-94.2433,2.0,231.1089868,25.57990813,-99999.0,'11111222,11111222,99999999' 
TABS,ioos:station:wmo:42050:1,2006-07-03T23:00:00Z,28.8425,-94.2433,2.0,243.726194,25.4825607,-99999.0,'11111222,11111222,99999999' 
TABS,ioos:station:wmo:42050:1,2006-07-03T23:30:00Z,28.8425,-94.2433,2.0,243.6647431,20.03980289,-99999.0,'11111222,11111222,99999999' 
TABS,ioos:station:wmo:42050:1,2006-07-04T00:00:00Z,28.8425,-94.2433,2.0,244.8026534,22.10312421,-99999.0,'11111222,11111222,99999999' 
TABS,ioos:station:wmo:42050:1,2006-07-04T00:30:00Z,28.8425,-94.2433,2.0,252.4457707,18.30226489,-99999.0,'11111222,11111222,99999999' 
TABS,ioos:station:wmo:42050:1,2006-07-04T01:00:00Z,28.8425,-94.2433,2.0,255.2354544,16.99099173,-99999.0,'11111222,11111222,99999999' 
TABS,ioos:station:wmo:42050:1,2006-07-04T01:30:00Z,28.8425,-94.2433,2.0,259.9746294,5.859462433,-99999.0,'11133222,11111222,99999999' 
TABS,ioos:station:wmo:42050:1,2006-07-04T02:00:00Z,28.8425,-94.2433,2.0,260.1272544,11.2566869,-99999.0,'11111222,11111222,99999999' 
TABS,ioos:station:wmo:42050:1,2006-07-04T02:30:00Z,28.8425,-94.2433,2.0,277.7530473,10.30418362,-99999.0,'11111222,11111222,99999999' 
TABS,ioos:station:wmo:42050:1,2006-07-04T03:00:00Z,28.8425,-94.2433,2.0,278.6938892,9.924016324,-99999.0,'11133222,11111222,99999999' 
TABS,ioos:station:wmo:42050:1,2006-07-04T03:30:00Z,28.8425,-94.2433,2.0,297.2764514,11.89232526,-99999.0,'11111222,11111222,99999999' 
TABS,ioos:station:wmo:42050:1,2006-07-04T04:00:00Z,28.8425,-94.2433,2.0,297.1463345,10.58608993,-99999.0,'11111222,11111222,99999999' 
TABS,ioos:station:wmo:42050:1,2006-07-04T04:30:00Z,28.8425,-94.2433,2.0,318.7891967,8.560560729,-99999.0,'11133222,11111222,99999999' 
TABS,ioos:station:wmo:42050:1,2006-07-04T05:00:00Z,28.8425,-94.2433,2.0,331.2532209,6.695169901,-99999.0,'11133222,11111222,99999999' 
TABS,ioos:station:wmo:42050:1,2006-07-04T05:30:00Z,28.8425,-94.2433,2.0,337.5935322,3.515408938,-99999.0,'11133222,11111222,99999999' 
TABS,ioos:station:wmo:42050:1,2006-07-04T06:00:00Z,28.8425,-94.2433,2.0,7.478882478,2.612221277,-99999.0,'11133222,11111222,99999999' 
TABS,ioos:station:wmo:42050:1,2006-07-04T06:30:00Z,28.8425,-94.2433,2.0,30.80498565,5.565150492,-99999.0,'11133222,11111222,99999999' 
TABS,ioos:station:wmo:42050:1,2006-07-04T07:00:00Z,28.8425,-94.2433,2.0,47.65898341,4.57283282,-99999.0,'11133222,11111222,99999999' 
TABS,ioos:station:wmo:42050:1,2006-07-04T07:30:00Z,28.8425,-94.2433,2.0,61.79843773,6.263545322,-99999.0,'11133222,11111222,99999999' 
TABS,ioos:station:wmo:42050:1,2006-07-04T08:00:00Z,28.8425,-94.2433,2.0,56.54335025,7.491288274,-99999.0,'11133222,11111222,99999999' 
TABS,ioos:station:wmo:42050:1,2006-07-04T08:30:00Z,28.8425,-94.2433,2.0,59.2501046,9.192388155,-99999.0,'11133222,11111222,99999999' 
TABS,ioos:station:wmo:42050:1,2006-07-04T09:00:00Z,28.8425,-94.2433,2.0,69.93228885,10.98705147,-99999.0,'11111222,11111222,99999999' 
TABS,ioos:station:wmo:42050:1,2006-07-04T09:30:00Z,28.8425,-94.2433,2.0,66.49264244,12.91154909,-99999.0,'11111222,11111222,99999999' 
TABS,ioos:station:wmo:42050:1,2006-07-04T10:00:00Z,28.8425,-94.2433,2.0,67.60139432,15.14242055,-99999.0,'11111222,11111222,99999999' 
TABS,ioos:station:wmo:42050:1,2006-07-04T10:30:00Z,28.8425,-94.2433,2.0,66.24924502,15.94002823,-99999.0,'11111222,11111222,99999999' 
TABS,ioos:station:wmo:42050:1,2006-07-04T11:00:00Z,28.8425,-94.2433,2.0,63.20339767,8.850429368,-99999.0,'11133222,11111222,99999999' 
TABS,ioos:station:wmo:42050:1,2006-07-04T11:30:00Z,28.8425,-94.2433,2.0,65.33927978,17.49571376,-99999.0,'11111222,11111222,99999999' 
TABS,ioos:station:wmo:42050:1,2006-07-04T12:00:00Z,28.8425,-94.2433,2.0,72.44856422,18.86839156,-99999.0,'11111222,11111222,99999999' 
TABS,ioos:station:wmo:42050:1,2006-07-04T12:30:00Z,28.8425,-94.2433,2.0,69.48236268,19.22986479,-99999.0,'11111222,11111222,99999999' 
TABS,ioos:station:wmo:42050:1,2006-07-04T13:00:00Z,28.8425,-94.2433,2.0,75.02750068,18.84996021,-99999.0,'11111222,11111222,99999999' 
TABS,ioos:station:wmo:42050:1,2006-07-04T13:30:00Z,28.8425,-94.2433,2.0,79.66798463,18.84558304,-99999.0,'11111222,11111222,99999999' 
TABS,ioos:station:wmo:42050:1,2006-07-04T14:00:00Z,28.8425,-94.2433,2.0,81.14881587,17.41741944,-99999.0,'11111222,11111222,99999999' 
TABS,ioos:station:wmo:42050:1,2006-07-04T14:30:00Z,28.8425,-94.2433,2.0,83.29236307,15.32489804,-99999.0,'11111222,11111222,99999999' 
TABS,ioos:station:wmo:42050:1,2006-07-04T15:00:00Z,28.8425,-94.2433,2.0,88.16264515,16.21833839,-99999.0,'11111222,11111222,99999999' 
TABS,ioos:station:wmo:42050:1,2006-07-04T15:30:00Z,28.8425,-94.2433,2.0,93.77596892,17.00691918,-99999.0,'11111222,11111222,99999999' 
TABS,ioos:station:wmo:42050:1,2006-07-04T16:00:00Z,28.8425,-94.2433,2.0,99.5030716,16.17193248,-99999.0,'11111222,11111222,99999999' 